Find Starlink 30827

NORAD ID: 58195 Int'l Des: 2023-167 Owner: SPXS Country: US Constellation: starlink operational
LEOCIRCULAR

Current View

Loading 3D Globe...

About Starlink 30827

Starlink 30827 (NORAD 58195) is a starlink constellation satellite (v2 mini) launched Oct 30, 2023 by SPXS of US. It operates in LEO, CIRCULAR orbit with a mass of 730.00 kg.

About Starlink 30827

Description loading...

Upcoming Passes

Passes for default location (London). Set your location on the main map for personalized predictions.

Altitude History

Loading altitude history...

Two-Line Element Set

1 58195U 23167W 26170.32652001 .00005372 00000-0 20475-3 0 9990
2 58195 43.0044 289.0224 0001611 253.2613 106.8062 15.27554837146532
Epoch: Jun 19, 2026 • Age: 21 hours

Current Status

Altitude 482.4 km
Velocity 7.63 km/s
Sub-Earth Point 14.71°N, 105.48°E
Launch Date Oct 30, 2023
Age 2.6 years
Type internet

Technical Details

Classification Payload
Mass 730.00 kg
Dry Mass 700.00 kg
Total Mass 730.00 kg
Length 0.30 m
Diameter 4.10 m
Span 29.00 m
Shape Box + pan
Manufacturer SPXS
Bus Type Starlink V2M
Phase Status In Orbit
Owner/State SPXS/US

Most Searched